When you browse on this site, cookies collect data to enhance your experience and personalize the content and advertising you see.
Visit our Privacy Policy to learn more. By continuing to use the site, you agree to this use of cookies and data.
  • In Hungary
  • List of Countries
  • For 7 days
  • Water Temperature
  • Satellite Maps
  • Weather Map
  • News
  • Weather Widgets
  • user-avatar
    Login

    Hourly Weather Glauchau

    Today, 16 February, Saturday

    Time Temperature Precipitation Wind Pressure Humidity
    00:00 +4°C° 0 mm 3 mps 748 mmHg 66%
    01:00 +4°C° 0 mm 3 mps 748 mmHg 65%
    02:00 +4°C° 0 mm 3 mps 747 mmHg 64%
    03:00 +3°C° 0 mm 3 mps 747 mmHg 63%
    04:00 +3°C° 0 mm 3 mps 747 mmHg 61%
    05:00 +3°C° 0 mm 3 mps 747 mmHg 61%
    06:00 +3°C° 0 mm 3 mps 746 mmHg 60%
    07:00 +3°C° 0 mm 3 mps 746 mmHg 59%
    08:00 +4°C° 0 mm 4 mps 746 mmHg 57%
    09:00 +6°C° 0 mm 4 mps 746 mmHg 54%
    10:00 +8°C° 0 mm 4 mps 746 mmHg 52%
    11:00 +10°C° 0 mm 4 mps 746 mmHg 50%
    12:00 +11°C° 0 mm 4 mps 746 mmHg 48%
    13:00 +13°C° 0 mm 5 mps 746 mmHg 46%
    14:00 +12°C° 0 mm 4 mps 746 mmHg 49%
    15:00 +12°C° 0 mm 4 mps 746 mmHg 53%
    16:00 +11°C° 0 mm 3 mps 745 mmHg 57%
    17:00 +10°C° 0 mm 3 mps 745 mmHg 61%
    18:00 +8°C° 0 mm 3 mps 745 mmHg 66%
    19:00 +5°C° 0 mm 4 mps 745 mmHg 70%
    20:00 +4°C° 0 mm 4 mps 745 mmHg 70%
    21:00 +4°C° 0 mm 4 mps 745 mmHg 70%
    22:00 +4°C° 0 mm 4 mps 745 mmHg 69%
    23:00 +3°C° 0 mm 3 mps 745 mmHg 70%

    Tomorrow, 17 February, Sunday

    Time Temperature Precipitation Wind Pressure Humidity
    00:00 +3°C° 0 mm 3 mps 745 mmHg 70%
    01:00 +3°C° 0 mm 3 mps 745 mmHg 71%
    02:00 +3°C° 0 mm 3 mps 745 mmHg 71%
    03:00 +2°C° 0 mm 3 mps 745 mmHg 72%
    04:00 +2°C° 0 mm 3 mps 744 mmHg 73%
    05:00 +2°C° 0 mm 3 mps 744 mmHg 73%
    06:00 +2°C° 0 mm 3 mps 744 mmHg 73%
    07:00 +2°C° 0 mm 3 mps 744 mmHg 73%
    08:00 +4°C° 0 mm 3 mps 744 mmHg 68%
    09:00 +5°C° 0 mm 3 mps 745 mmHg 64%
    10:00 +8°C° 0 mm 3 mps 745 mmHg 60%
    11:00 +10°C° 0 mm 3 mps 744 mmHg 57%
    12:00 +11°C° 0 mm 3 mps 744 mmHg 54%
    13:00 +13°C° 0 mm 3 mps 744 mmHg 51%
    14:00 +12°C° 0 mm 3 mps 744 mmHg 55%
    15:00 +12°C° 0 mm 3 mps 743 mmHg 58%
    16:00 +13°C° 0 mm 2 mps 743 mmHg 61%
    17:00 +10°C° 0 mm 3 mps 743 mmHg 66%
    18:00 +8°C° 0 mm 3 mps 743 mmHg 70%
    19:00 +5°C° 0 mm 3 mps 743 mmHg 74%
    20:00 +5°C° 0 mm 3 mps 742 mmHg 72%
    21:00 +4°C° 0 mm 3 mps 742 mmHg 70%
    22:00 +4°C° 0 mm 3 mps 742 mmHg 67%
    23:00 +4°C° 0 mm 3 mps 742 mmHg 67%

    Day after tomorrow, 18 February, Monday

    Time Temperature Precipitation Wind Pressure Humidity
    00:00 +3°C° 0 mm 3 mps 742 mmHg 66%
    01:00 +3°C° 0 mm 3 mps 742 mmHg 66%
    02:00 +3°C° 0 mm 3 mps 742 mmHg 66%
    03:00 +3°C° 0 mm 3 mps 742 mmHg 67%
    04:00 +2°C° 0 mm 3 mps 741 mmHg 68%
    05:00 +2°C° 0 mm 3 mps 741 mmHg 68%
    06:00 +2°C° 0 mm 3 mps 741 mmHg 68%
    07:00 +2°C° 0 mm 3 mps 741 mmHg 69%
    08:00 +4°C° 0 mm 3 mps 741 mmHg 65%
    09:00 +5°C° 0 mm 3 mps 742 mmHg 62%
    10:00 +8°C° 0 mm 3 mps 742 mmHg 58%
    11:00 +9°C° 0 mm 3 mps 741 mmHg 56%
    12:00 +11°C° 0 mm 3 mps 741 mmHg 54%
    13:00 +12°C° 0 mm 3 mps 741 mmHg 51%
    14:00 +12°C° 0 mm 3 mps 741 mmHg 54%
    15:00 +12°C° 0 mm 3 mps 740 mmHg 57%
    16:00 +13°C° 0 mm 2 mps 740 mmHg 60%
    17:00 +10°C° 0 mm 3 mps 739 mmHg 66%
    18:00 +8°C° 0 mm 3 mps 739 mmHg 71%
    19:00 +5°C° 0 mm 3 mps 739 mmHg 77%
    20:00 +5°C° 0 mm 3 mps 739 mmHg 76%
    21:00 +4°C° 0 mm 3 mps 739 mmHg 75%
    22:00 +4°C° 0 mm 3 mps 739 mmHg 74%
    23:00 +3°C° 0 mm 3 mps 739 mmHg 73%

    19 February, Tuesday

    Time Temperature Precipitation Wind Pressure Humidity
    00:00 +3°C° 0 mm 4 mps 739 mmHg 73%
    01:00 +3°C° 0 mm 4 mps 739 mmHg 72%
    02:00 +3°C° 0 mm 4 mps 739 mmHg 72%
    03:00 +3°C° 0 mm 4 mps 738 mmHg 72%
    04:00 +2°C° 0 mm 5 mps 738 mmHg 72%
    05:00 +2°C° 0 mm 5 mps 738 mmHg 73%
    06:00 +2°C° 0 mm 5 mps 738 mmHg 75%
    07:00 +2°C° 0 mm 5 mps 738 mmHg 76%
    08:00 +3°C° 0 mm 6 mps 738 mmHg 74%
    09:00 +4°C° 0 mm 6 mps 739 mmHg 72%
    10:00 +7°C° 0 mm 6 mps 739 mmHg 70%
    11:00 +7°C° 0 mm 6 mps 739 mmHg 70%
    12:00 +8°C° 0 mm 7 mps 739 mmHg 71%
    13:00 +8°C° 0 mm 7 mps 739 mmHg 72%
    14:00 +8°C° 0.1 mm 6 mps 739 mmHg 72%
    15:00 +8°C° 0.1 mm 5 mps 739 mmHg 72%
    16:00 +7°C° 0.1 mm 5 mps 739 mmHg 72%
    17:00 +6°C° 0 mm 4 mps 739 mmHg 75%
    18:00 +7°C° 0 mm 3 mps 739 mmHg 77%
    19:00 +5°C° 0 mm 3 mps 739 mmHg 80%
    20:00 +4°C° 0 mm 3 mps 740 mmHg 82%
    21:00 +4°C° 0 mm 3 mps 740 mmHg 84%
    22:00 +3°C° 0 mm 3 mps 740 mmHg 86%
    23:00 +3°C° 0 mm 3 mps 740 mmHg 87%

    20 February, Wednesday

    Time Temperature Precipitation Wind Pressure Humidity
    00:00 +2°C° 0 mm 3 mps 740 mmHg 88%
    01:00 +1°C° 0 mm 4 mps 740 mmHg 89%
    02:00 +1°C° 0 mm 4 mps 740 mmHg 89%
    03:00 0°C° 0 mm 4 mps 740 mmHg 89%
    04:00 0°C° 0 mm 4 mps 740 mmHg 89%
    05:00 0°C° 0 mm 4 mps 740 mmHg 89%
    06:00 0°C° 0 mm 4 mps 740 mmHg 89%
    07:00 0°C° 0 mm 4 mps 740 mmHg 90%
    08:00 +1°C° 0 mm 5 mps 741 mmHg 86%
    09:00 +3°C° 0 mm 5 mps 741 mmHg 82%
    10:00 +4°C° 0 mm 6 mps 741 mmHg 78%
    11:00 +5°C° 0 mm 6 mps 741 mmHg 74%
    12:00 +7°C° 0 mm 6 mps 741 mmHg 70%
    13:00 +8°C° 0 mm 6 mps 741 mmHg 66%
    14:00 +8°C° 0 mm 6 mps 741 mmHg 67%
    15:00 +8°C° 0 mm 6 mps 741 mmHg 68%
    16:00 +8°C° 0 mm 5 mps 740 mmHg 69%
    17:00 +7°C° 0 mm 5 mps 741 mmHg 73%
    18:00 +6°C° 0 mm 5 mps 741 mmHg 77%
    19:00 +5°C° 0 mm 4 mps 741 mmHg 80%
    20:00 +5°C° 0 mm 4 mps 741 mmHg 81%
    21:00 +5°C° 0 mm 5 mps 741 mmHg 81%
    22:00 +5°C° 0 mm 5 mps 741 mmHg 82%
    23:00 +5°C° 0 mm 4 mps 741 mmHg 82%

    21 February, Thursday

    Time Temperature Precipitation Wind Pressure Humidity
    00:00 +5°C° 0 mm 4 mps 741 mmHg 83%
    01:00 +5°C° 0 mm 4 mps 742 mmHg 84%
    02:00 +5°C° 0 mm 4 mps 742 mmHg 85%
    03:00 +4°C° 0 mm 4 mps 742 mmHg 87%
    04:00 +4°C° 0 mm 4 mps 742 mmHg 88%
    05:00 +4°C° 0 mm 4 mps 742 mmHg 89%
    06:00 +3°C° 0 mm 4 mps 742 mmHg 89%
    07:00 +3°C° 0 mm 4 mps 742 mmHg 89%
    08:00 +4°C° 0 mm 4 mps 742 mmHg 84%
    09:00 +6°C° 0 mm 5 mps 743 mmHg 78%
    10:00 +7°C° 0 mm 5 mps 743 mmHg 72%
    11:00 +7°C° 0.1 mm 5 mps 743 mmHg 71%
    12:00 +8°C° 0.1 mm 5 mps 743 mmHg 70%
    13:00 +10°C° 0.1 mm 4 mps 743 mmHg 69%
    14:00 +8°C° 1.2 mm 4 mps 743 mmHg 76%
    15:00 +8°C° 1.2 mm 3 mps 743 mmHg 83%
    16:00 +7°C° 1.2 mm 2 mps 742 mmHg 90%
    17:00 +7°C° 1.4 mm 2 mps 743 mmHg 93%
    18:00 +6°C° 1.4 mm 2 mps 743 mmHg 95%
    19:00 +6°C° 1.4 mm 2 mps 743 mmHg 97%
    20:00 +6°C° 0.5 mm 2 mps 743 mmHg 97%
    21:00 +6°C° 0.5 mm 2 mps 744 mmHg 97%
    22:00 +6°C° 0.5 mm 2 mps 744 mmHg 96%
    23:00 +6°C° 0.1 mm 2 mps 744 mmHg 97%
    Show more